Regional Weather Roundup
Issued by NWS

Home | Current Version | Previous Version | Graphics & Text | Print | Product List | Glossary On
Versions: 1 2 3 4 5 6 7 8 9 10 11 12 13 14 15 16 17 18 19 20 21 22 23 24 25 26 27 28 29 30 31 32 33 34 35 36 37 38 39 40 41 42 43 44 45 46 47 48 49 50
000
ASUS43 KLOT 240112
RWRIL

ILLINOIS REGIONAL WEATHER ROUNDUP
NATIONAL WEATHER SERVICE CHICAGO/ROMEOVILLE IL
800 PM CDT SAT MAY 23 2015

NOTE: "FAIR" INDICATES FEW OR NO CLOUDS BELOW 12,000 FEET WITH NO
SIGNIFICANT WEATHER AND/OR OBSTRUCTIONS TO VISIBILITY.

* THESE STATIONS ARE NOT UNDER NWS QUALITY CONTROL. THEY ALSO MAY NOT
  REPORT WEATHER SUCH AS PRECIPITATION OR FOG.

ILZ001-002-007-009-015-016-024-240200-
NORTHWEST ILLINOIS

CITY           SKY/WX    TMP DP  RH WIND       PRES   REMARKS
MOLINE         MOCLDY    74  47  38 S7        30.14S
STERLING*      PTCLDY    75  48  38 S3        30.16S
SAVANNA*       PTCLDY    74  47  37 S6        30.15S
$$

ILZ003-004-008-010-011-017-018-240200-
NORTH CENTRAL ILLINOIS

CITY           SKY/WX    TMP DP  RH WIND       PRES   REMARKS
ROCKFORD       MOCLDY    72  42  34 S8        30.18F
FREEPORT*      PTCLDY    71  48  43 S7        30.18S
ROCHELLE*      PTCLDY    74  48  39 SW7       30.17F
DE KALB*       MOCLDY    70  47  42 SW5       30.19S
PERU*          PTCLDY    75  48  38 S5        30.17F
$$

ILZ005-006-012>014-019>023-240200-
NORTHEAST ILLINOIS

CITY           SKY/WX    TMP DP  RH WIND       PRES   REMARKS
CHICAGO-OHARE  MOCLDY    72  43  35 E9        30.18S
CHICAGO-MIDWAY PTCLDY    73  44  35 E10       30.18F
AURORA         PTCLDY    75  44  33 SW5       30.18S
LANSING*       CLEAR     70  44  38 S6        30.19F
JOLIET*        CLEAR     75  47  36 S3        30.18F
WAUKEGAN       PTCLDY    59  40  49 E6        30.19S
DUPAGE AIRPORT PTCLDY    72  47  40 CALM      30.17F
KANKAKEE*      CLEAR     73  45  36 SE8       30.20S
WHEELING       CLEAR     70  41  34 SE6       30.20S
MORRIS*        CLEAR     74  47  37 S8        30.17F
ROMEOVILLE*    CLEAR     73  43  33 S7        30.17F
NORTHERLY ISL    N/A     59  43  55 CALM        N/A
$$

LMZ740>746-240200-
SOUTHERN LAKE MICHIGAN

STATION/POSITION SKY/WX   TEMP    WIND        PRES    VSBY  WAVE
                          AIR SEA DIR/SP/G                  HT/PER
                          (F)     (DEG/KT/KT) (MB)    (MI)  (FT/S)
SOUTHERN BUOY              47 38  100/ 10/ 10 1023.4F         0
HARRISON CRIB              57      90/ 13/ 14   N/A
BURNHAM HARBOR             59      CALM  /  3   N/A
CALUMET HARBOR             61      90/  4/  9   N/A
BURNS HARBOR               64      80/ 11/ 14 1023.0F
MICHIGAN CITY              63      40/ 13/ 15   N/A
MICHIGAN CITY 6N           58 53   80/  6/  6   N/A           1
ST. JOSEPH                 63 55   90/  6/  6   N/A           1
$$

ILZ025>027-034>036-040-047-049-050-058-095>099-240200-
WEST-CENTRAL ILLINOIS

CITY           SKY/WX    TMP DP  RH WIND       PRES   REMARKS
QUINCY         CLOUDY    72  48  42 S6        30.14S
GALESBURG*     CLOUDY    72  46  39 SE3       30.16S
MACOMB*        CLOUDY    74  47  38 SE8       30.17S
JACKSONVILLE*  CLOUDY    75  49  40 SE7       30.16F
PITTSFIELD*    CLOUDY    73  50  44 SE6       30.16S
$$

ILZ028>032-037-038-041>044-048-051>054-059>061-240200-
CENTRAL ILLINOIS

CITY           SKY/WX    TMP DP  RH WIND       PRES   REMARKS
PONTIAC        PTCLDY    76  47  36 S6        30.19F
BLOOMINGTON    CLOUDY    72  50  45 S9        30.20F
DECATUR        CLOUDY    72  50  45 SE8       30.19F
PEORIA         CLOUDY    74  48  39 S7        30.17S
LACON*         MOCLDY    73  49  43 S3        30.16F
LINCOLN*       CLOUDY    74  48  39 S5        30.16F
SPRINGFIELD    CLOUDY    73  51  46 S7        30.18S
TAYLORVILLE    CLOUDY    70  50  49 SE5       30.19S
$$

ILZ033-039-045-046-055>057-062-063-240200-
EAST-CENTRAL ILLINOIS

CITY           SKY/WX    TMP DP  RH WIND       PRES   REMARKS
CHAMPAIGN      CLOUDY    75  46  35 S9        30.21S
DANVILLE*      PTCLDY    73  48  41 SE6       30.19F
RANTOUL*       MOCLDY    76  47  36 S6        30.21S
MATTOON        CLOUDY    71  48  43 E3        30.20F
PARIS*         MOCLDY    73  50  44 SE5       30.22F
$$

ILZ079-100>102-240200-
SOUTHWEST ILLINOIS

CITY           SKY/WX    TMP DP  RH WIND       PRES   REMARKS
ALTON          MOCLDY    70  52  52 SE9       30.17S
BELLEVILLE     CLOUDY    70  56  60 SE7       30.15F
CAHOKIA*       CLOUDY    73  50  44 SE3       30.16S
SPARTA*        CLOUDY    71  54  54 SE3       30.18S
$$

ILZ064>066-069>071-074>076-080>082-084>086-088>090-092>094-240200-
SOUTH-CENTRAL ILLINOIS

CITY           SKY/WX    TMP DP  RH WIND       PRES   REMARKS
CARBONDALE     MOCLDY    72  54  53 SE7       30.18R
CAIRO*         PTCLDY    72  56  57 SE5       30.17F
EFFINGHAM*     MOCLDY    70  48  45 CALM      30.21S
MARION         MOCLDY    73  54  49 SE3       30.19S
MT. VERNON     MOCLDY    72  48  43 E3        30.20S
CENTRALIA*     MOCLDY    70  48  45 CALM      30.20R
SALEM*         MOCLDY    74  45  35 CALM      30.20R
METROPOLIS*    PTCLDY    73  54  52 E3        30.18F
$$

ILZ067-068-072-073-078-083-087-091-240200-
SOUTHEAST ILLINOIS

CITY           SKY/WX    TMP DP  RH WIND       PRES   REMARKS
LAWRENCEVILLE  MOCLDY    69  52  54 SE7       30.20F
FLORA*         MOCLDY    70  50  48 SE7       30.20S
FAIRFIELD*     MOCLDY    71  52  51 SE3       30.19S
HARRISBURG*    PTCLDY    72  55  56 SE5       30.20S
ROBINSON*      MOCLDY    73  49  43 SE6       30.21F
CARMI*         MOCLDY    70  48  46 SE7       30.20S
$$

ABBREVIATIONS USED IN REMARKS
   TC - TEMPERATURE IN CELSIUS
  WCI - WIND CHILL INDEX
   HX - HEAT INDEX
  VSB - VISIBILITY
$$




USA.gov is the U.S. government's official web portal to all federal, state and local government web resources and services.